Home   Weather   Brantford   Past weeks

Flag for Canada Past Weather in Brantford, Ontario, Canada — Yesterday and Last 2 Weeks

Now
46 °F

Mostly cloudy.


Feels Like: 45 °F
Forecast: 32 / 52 °F
Wind: 3 mph from South

Location: Hamilton Airport

Current Time: Feb 21, 2017 at 2:14:07 pm

Latest Report: Feb 21, 2017 at 1:00 pm


Visibility: 15 mi

Pressure: 29.98 "Hg

Humidity: 57%

Dew Point: 32 °F

Location of BrantfordLocation

Past Weather in Brantford — Graph

°F

Brantford Temperature Yesterday

Maximum temperature yesterday: 39 °F (at 1:00 pm)
Minimum temperature yesterday: 30 °F (at 11:00 pm)
Average temperature yesterday: 34 °F

High & Low Weather Summary for the Past Weeks

 TemperatureHumidityPressure
High55 °F (Feb 18, 2:00 pm)100% (Feb 7, 4:00 pm)30.38 "Hg (Feb 7, 4:00 pm)
Low14 °F (Feb 9, 8:00 am)50% (Feb 9, 2:00 pm)29.25 "Hg (Feb 7, 10:00 pm)
Average30 °F77%29.88 "Hg
* Reported Feb 6 1:00 pm — Feb 21 1:00 pm, Brantford, Weather by CustomWeather, © 2017

Note: Actual official high and low records may vary slightly from our data, if they occured in-between our weather recording intervals... More about our weather records

Advertising

Brantford Weather History for the Previous 24 Hours

Scroll right to see more
 ConditionsComfort  
Time TempWeatherWind HumidityBarometerVisibility
1:00 pm
Tue, Feb 21
46 °FMostly cloudy.3 mph57%29.98 "Hg15 mi
12:00 pm45 °FMostly cloudy.2 mph57%29.99 "Hg15 mi
11:00 am41 °FMostly cloudy.5 mph61%30.01 "Hg15 mi
10:00 am39 °FMore clouds than sun.3 mph65%30.05 "Hg15 mi
9:00 am34 °FPartly sunny.6 mph75%30.07 "Hg15 mi
8:00 am32 °FPartly sunny.7 mph80%30.08 "Hg15 mi
7:00 am30 °FPassing clouds.9 mph80%30.07 "Hg15 mi
6:00 am30 °FPassing clouds.9 mph80%30.10 "Hg15 mi
5:00 am32 °FPassing clouds.12 mph69%30.12 "Hg15 mi
4:00 am32 °FPassing clouds.10 mph64%30.15 "Hg15 mi
3:00 am32 °FPassing clouds.12 mph64%30.18 "Hg15 mi
2:00 am32 °FPassing clouds.16 mph60%30.20 "Hg15 mi
1:00 am30 °FPassing clouds.12 mph64%30.21 "Hg15 mi
12:00 am30 °FPassing clouds.13 mph69%30.25 "Hg15 mi
11:00 pm
Mon, Feb 20
30 °FPassing clouds.14 mph69%30.27 "Hg15 mi
10:00 pm32 °FPassing clouds.16 mph60%30.28 "Hg15 mi
9:00 pm32 °FPassing clouds.15 mph64%30.31 "Hg15 mi
8:00 pm32 °FPassing clouds.14 mph64%30.34 "Hg15 mi
7:00 pm32 °FPassing clouds.14 mph69%30.34 "Hg15 mi
6:00 pm34 °FPassing clouds.16 mph65%30.34 "Hg15 mi
5:00 pm36 °FPartly sunny.15 mph60%30.34 "Hg15 mi
4:00 pm39 °FScattered clouds.14 mph52%30.34 "Hg15 mi
3:00 pm39 °FPartly sunny.12 mph56%30.35 "Hg15 mi
2:00 pm39 °FScattered clouds.13 mph56%30.34 "Hg15 mi
Weather by CustomWeather, © 2017

See weather overviewHow to use our weather pages